Flag for United Kingdom Weather past 2 weeks in Belfast, Northern Ireland, United Kingdom

Now
52 °F

Scattered clouds.


Feels Like: 48 °F
Forecast: 39 / 56 °F
Wind: 10 mph from North

Location: Belfast / Harbour

Current Time: Apr 19, 2015 at 2:41:08 PM

Latest Report: Apr 19, 2015 at 2:20 PM


Visibility: N/A

Pressure: 30.36 "Hg

Humidity: 50%

Dew point: 34 °F

Location of BelfastLocation

Historic Weather in Belfast — Graph

°F

Belfast temperature yesterday

Maximum temperature yesterday: 54 °F (at 2:20 PM)
Minimum temperature yesterday: 41 °F (at 6:20 AM)
Average temperature yesterday: 49 °F

Past Weeks' High & Low Weather Summary

 TemperatureHumidityPressure
High63 °F (Apr 6, 12:50 PM)100% (Apr 6, 7:20 AM)30.63 "Hg (Apr 6, 7:20 AM)
Low37 °F (Apr 12, 9:20 AM)33% (Apr 18, 3:20 PM)29.65 "Hg (Apr 10, 7:50 PM)
Average51 °F66%30.23 "Hg
* Reported Apr 4 1:20 PM — Apr 19 1:20 PM, Belfast, Weather by CustomWeather, © 2015

Note: Actual official high and low records may vary slightly from our data, if they occured in-between our weather recording intervals... More about our weather records

Advertising

Belfast weather history for previous 24 hours

 ConditionsComfort  
Time TempWeatherWind HumidityBarometerVisibility
1:20 PM
Sun, Apr 19
52 °FScattered clouds.6 mph50%30.39 "HgN/A
12:50 PM52 °FScattered clouds.9 mph47%30.39 "HgN/A
12:20 PM50 °FScattered clouds.9 mph54%30.39 "HgN/A
11:50 AM50 °FScattered clouds.9 mph54%30.39 "HgN/A
11:20 AM50 °FScattered clouds.7 mph54%30.39 "HgN/A
10:50 AM48 °FBroken clouds.9 mph58%30.42 "HgN/A
10:20 AM48 °FBroken clouds.8 mph58%30.42 "HgN/A
9:50 AM46 °FBroken clouds.9 mph66%30.42 "HgN/A
9:20 AM48 °FScattered clouds.9 mph76%30.42 "HgN/A
8:50 AM48 °FScattered clouds.9 mph76%30.42 "HgN/A
8:20 AM45 °FPassing clouds.6 mph81%30.42 "HgN/A
7:50 AM43 °FSunny.No wind81%30.42 "Hg10 mi
7:20 AM41 °FSunny.No wind81%30.42 "Hg10 mi
6:50 AM37 °FClear.2 mph87%30.39 "Hg10 mi
6:20 AM37 °FFog.2 mph87%30.39 "HgN/A
8:50 PM
Sat, Apr 18
46 °FSunny.6 mph66%30.42 "Hg10 mi
8:20 PM48 °FSunny.6 mph62%30.42 "Hg10 mi
7:50 PM48 °FSunny.7 mph62%30.42 "Hg10 mi
7:20 PM50 °FSunny.8 mph62%30.42 "Hg10 mi
6:50 PM50 °FSunny.14 mph62%30.42 "Hg10 mi
6:20 PM50 °FSunny.14 mph62%30.42 "Hg10 mi
5:50 PM54 °FSunny.9 mph44%30.42 "Hg10 mi
5:20 PM54 °FPassing clouds.10 mph44%30.42 "HgN/A
4:50 PM54 °FPassing clouds.8 mph41%30.42 "HgN/A
4:20 PM54 °FSunny.12 mph47%30.45 "Hg10 mi
3:50 PM54 °FPassing clouds.10 mph51%30.45 "HgN/A
3:20 PM54 °FSunny.12 mph33%30.45 "Hg10 mi
2:50 PM54 °FSunny.13 mph41%30.45 "Hg10 mi
2:20 PM54 °FPassing clouds.9 mph41%30.45 "HgN/A
Weather by CustomWeather, © 2015

See weather overviewHow to use our weather pages